TimeEDT,TemperatureF,Dew PointF,Humidity,Sea Level PressureIn,VisibilityMPH,Wind Direction,Wind SpeedMPH,Gust SpeedMPH,PrecipitationIn,Events,Conditions,WindDirDegrees,DateUTC
12:56 AM,80.1,75.9,87,29.94,10.0,South,4.6,-,N/A,,Clear,190,2013-09-01 04:56:00
1:56 AM,80.1,75.9,87,29.94,8.0,SSW,3.5,-,N/A,,Clear,200,2013-09-01 05:56:00
2:56 AM,78.1,75.0,90,29.92,8.0,Calm,Calm,-,N/A,,Clear,0,2013-09-01 06:56:00
3:56 AM,77.0,75.0,94,29.91,6.0,SSW,3.5,-,N/A,,Clear,210,2013-09-01 07:56:00
4:56 AM,77.0,75.0,94,29.91,6.0,SW,4.6,-,N/A,,Clear,220,2013-09-01 08:56:00
5:56 AM,77.0,73.9,90,29.93,5.0,Calm,Calm,-,N/A,,Clear,0,2013-09-01 09:56:00
6:56 AM,77.0,73.9,90,29.94,8.0,SW,5.8,-,N/A,,Clear,220,2013-09-01 10:56:00
7:56 AM,77.0,72.0,84,29.94,8.0,WSW,4.6,-,N/A,,Clear,240,2013-09-01 11:56:00
8:56 AM,80.1,72.0,76,29.95,10.0,West,5.8,-,N/A,,Clear,270,2013-09-01 12:56:00
9:56 AM,84.0,75.0,74,29.97,10.0,SW,6.9,-,N/A,,Clear,230,2013-09-01 13:56:00
10:56 AM,87.1,75.9,69,29.97,10.0,SW,9.2,-,N/A,,Partly Cloudy,220,2013-09-01 14:56:00
11:56 AM,88.0,75.9,67,29.95,10.0,West,5.8,-,N/A,,Partly Cloudy,260,2013-09-01 15:56:00
12:56 PM,89.1,73.9,61,29.94,10.0,West,10.4,-,N/A,,Mostly Cloudy,260,2013-09-01 16:56:00
1:09 PM,88.0,73.9,63,29.94,10.0,West,8.1,-,N/A,,Mostly Cloudy,270,2013-09-01 17:09:00
1:56 PM,91.9,75.0,58,29.93,10.0,Variable,5.8,-,N/A,,Mostly Cloudy,0,2013-09-01 17:56:00
2:56 PM,91.9,73.0,54,29.91,10.0,SW,6.9,-,N/A,,Partly Cloudy,230,2013-09-01 18:56:00
3:56 PM,91.0,73.0,55,29.88,10.0,SSW,6.9,-,N/A,,Scattered Clouds,210,2013-09-01 19:56:00
4:56 PM,88.0,77.0,70,29.87,10.0,South,6.9,-,N/A,,Mostly Cloudy,180,2013-09-01 20:56:00
5:56 PM,89.1,75.9,65,29.87,10.0,Variable,4.6,-,N/A,,Partly Cloudy,0,2013-09-01 21:56:00
6:56 PM,86.0,75.9,72,29.88,10.0,SSW,5.8,-,N/A,,Clear,210,2013-09-01 22:56:00
7:56 PM,84.0,75.9,76,29.89,10.0,SSW,6.9,-,N/A,,Clear,200,2013-09-01 23:56:00
8:56 PM,82.9,75.9,79,29.91,10.0,SSW,5.8,-,N/A,,Clear,200,2013-09-02 00:56:00
9:56 PM,82.9,75.9,79,29.93,10.0,SSW,6.9,-,N/A,,Partly Cloudy,200,2013-09-02 01:56:00
10:56 PM,82.0,75.9,82,29.94,10.0,SSW,8.1,-,N/A,,Clear,200,2013-09-02 02:56:00
11:56 PM,82.0,75.9,82,29.94,10.0,SSW,5.8,-,N/A,,Clear,210,2013-09-02 03:56:00